Showing default

TIROS 5, 309

Orbit data source: Space-Track

TIROS 5, 309 is a payload satellite owned by GSFC (US) in LEO that was launched on Tue, 19 Jun 1962 UTC via a THOR DELTA launch vehicle from the Air Force Eastern Test Range (AFETR). Payload-class satellites include a variety of spacecraft equipped with specific instruments for various scientific and technological missions. These include communications satellites like Starlink; space stations such as the ISS; scientific satellites like the Hubble; Earth observation satellites from companies like Planet Labs, Umbra, and HawkEye 360; GPS; miniature CubeSats for education and research; and military/defense satellites.

Loading next visibility...
Identifier
309, 1962-025A
Orbit
LEO
Country
Flag of USUS
Related business
Manufacturer
RCA/East Windsor
Mission
Non-operational spacecraft
Bus & Motor
TIROS, Unknown motor
Mass
129 kg wet, 129 kg dry
Launch date (UTC)
1962-06-19 (64 years ago)
Launch vehicle
THOR DELTA
Launch site
Air Force Eastern Test Range (AFETR)
Object type
Payload
Rocket body
Debris
Shape & HBR
CYL, 0.6 m
Radar Cross Section
Medium (>0.1 m² and <1 m²)

Expand to show TLE details & history
Last TLE update: 2 days ago

TLE from 2 days ago
0 TIROS 5
1 00309U 62025A   26208.04944193  .00000203  00000-0  67740-4 0  9992
2 00309  58.0904  73.1974 0179301 322.7494  36.1206 14.60696794387652
Epoch: 2026-07-27T01:11Z
TLE epoch observation values (Epoch: 2026-07-27T01:11:11.782Z)
Latitude
-0.00007°
Longitude
110.65967°
Altitude
590.716 km
Speed
7.62 km/s
True Right ascension
04h 52m 47s
True Declination
0° 00' 00"
Sunlit
Object was in daylight at epoch
Visualization orbit readout
Latitude
Unknown
Longitude
Unknown
Altitude
Unknown
Speed
Unknown
Apparent Right ascension
Unknown
Apparent Declination
Unknown
Sunlit
N/A
Visualization observer readout
Local Sidereal Time
03:38:39
Azimuth
Unknown
Elevation
Unknown
Doppler factor
Unknown
Orbital elements
Apogee altitude
817.165 km
Perigee altitude
563.685 km
Semi-major axis
7,068.562 km
Eccentricity
0.01793
Inclination
58.0904°
RAAN
73.1974°
Arg. of periapsis
322.7494°
True anomaly
37.354°
Mean anomaly
36.1206°
Eccentric anomaly
36.73506°
Mean motion
3.65213 °/min
Orbital period
98.57 mins
BSTAR
0.00006774
Loading maneuver chart data...
Computing Atmospheric mass density...
Loading historical data...
Loading historical data...
Loading historical data...
Loading historical data...
Loading historical data...
Loading historical data...
Loading historical data...

Documentation

Showing up to 5 results
|